Weather History for Perry, FL

Change the Weather History Date:

Tuesday, May 14, 2013

  Actual Average (KCTY) Record (KCTY)
Temperature  
Mean Temperature 62 °F 74 °F  
Max Temperature 82 °F 87 °F 95 °F (1998)
Min Temperature 44 °F 61 °F 44 °F (2013)
Degree Days  
Heating Degree Days 2 0  
Month to date heating degree days 0  
Since 1 July heating degree days 1303  
Cooling Degree Days 0 9  
Month to date cooling degree days 103  
Year to date cooling degree days 285  
Growing Degree Days 12 (Base 50)    
Moisture  
Dew Point 43 °F    
Average Humidity 54    
Maximum Humidity 93    
Minimum Humidity 22    
Precipitation  
Precipitation 0.01 in 0.08 in 0.69 in (2014)
Month to date precipitation 1.00  
Year to date precipitation 15.48  
Sea Level Pressure  
Sea Level Pressure 30.22 in    
Wind  
Wind Speed 2 mph (NNE)    
Max Wind Speed 13 mph    
Max Gust Speed 17 mph    
Visibility 10 miles    
Events      
T = Trace of Precipitation, MM = Missing Value Source: NWS Daily Summary

Daily Weather History Graph

Daily Weather History Graph

Search for Another Location

Airport:

Trip Planner

Search our weather history database for the weather conditions in past years. The results will help you decide how hot, cold, wet, or windy it might be!

Date:

Astronomy

May. 14, 2013 Rise Set
Actual Time 6:41 AM EDT 8:20 PM EDT
Civil Twilight 6:15 AM EDT 8:46 PM EDT
Nautical Twilight 5:43 AM EDT 9:18 PM EDT
Astronomical Twilight 5:10 AM EDT 9:51 PM EDT
Moon 10:19 AM EDT (5/14) No Moon Set
Length of Visible Light 14h 31m
Length of Day
13h 39m
Waxing Crescent, 19% of the Moon is Illuminated
May 14
Waxing Crescent
May 18
First Quarter
May 25
Full
May 31
Last Quarter
Jun 8
New

Hourly Weather History & Observations

Time (EDT) Temp. Windchill Dew Point Humidity Pressure Visibility Wind Dir Wind Speed Gust Speed Precip Events Conditions
12:15 AM 51.8 °F - 46.4 °F 82% 30.20 in 10.0 mi Calm Calm - N/A   Clear
12:35 AM 51.8 °F - 44.6 °F 76% 30.20 in 10.0 mi Calm Calm - N/A   Clear
12:53 AM 53.1 °F - 44.1 °F 71% 30.19 in - Calm Calm - N/A   Unknown
12:55 AM 50.0 °F - 44.6 °F 82% 30.20 in 10.0 mi Calm Calm - N/A   Clear
1:15 AM 50.0 °F - 44.6 °F 82% 30.20 in 10.0 mi Calm Calm - N/A   Clear
1:35 AM 50.0 °F - 44.6 °F 82% 30.19 in 10.0 mi Calm Calm - N/A   Clear
1:53 AM 51.1 °F - 44.1 °F 77% 30.18 in - Calm Calm - N/A   Unknown
1:55 AM 50.0 °F - 44.6 °F 82% 30.19 in 10.0 mi Calm Calm - N/A   Clear
2:15 AM 50.0 °F - 44.6 °F 82% 30.20 in 10.0 mi Calm Calm - N/A   Clear
2:35 AM 50.0 °F - 44.6 °F 82% 30.20 in 10.0 mi Calm Calm - N/A   Clear
2:53 AM 50.0 °F - 43.0 °F 77% 30.19 in - Calm Calm - N/A   Unknown
2:55 AM 48.2 °F - 42.8 °F 82% 30.20 in 10.0 mi Calm Calm - N/A   Clear
3:15 AM 48.2 °F - 42.8 °F 82% 30.20 in 10.0 mi Calm Calm - N/A   Clear
3:35 AM 48.2 °F - 44.6 °F 87% 30.20 in 10.0 mi Calm Calm - N/A   Clear
3:53 AM 50.0 °F - 44.1 °F 80% 30.18 in - Calm Calm - N/A   Unknown
3:55 AM 48.2 °F - 44.6 °F 87% 30.20 in 10.0 mi Calm Calm - N/A   Clear
4:15 AM 46.4 °F - 42.8 °F 87% 30.20 in 10.0 mi Calm Calm - N/A   Clear
4:35 AM 46.4 °F - 44.6 °F 93% 30.20 in 10.0 mi Calm Calm - N/A   Clear
4:53 AM 48.0 °F - 43.0 °F 83% 30.19 in - Calm Calm - N/A   Unknown
4:55 AM 46.4 °F - 44.6 °F 93% 30.20 in 10.0 mi Calm Calm - N/A   Clear
5:15 AM 46.4 °F - 42.8 °F 87% 30.21 in 10.0 mi Calm Calm - N/A   Clear
5:53 AM 48.0 °F - 44.1 °F 86% 30.20 in - Calm Calm - N/A   Unknown
5:55 AM 44.6 °F - 42.8 °F 93% 30.21 in 10.0 mi Calm Calm - N/A   Clear
6:15 AM 44.6 °F - 42.8 °F 93% 30.22 in 10.0 mi Calm Calm - N/A   Clear
6:35 AM 46.4 °F - 44.6 °F 93% 30.23 in 10.0 mi Calm Calm - N/A   Clear
6:53 AM 46.9 °F - 43.0 °F 86% 30.22 in - Calm Calm - N/A   Unknown
6:55 AM 44.6 °F - 42.8 °F 93% 30.23 in 10.0 mi Calm Calm - N/A   Clear
7:15 AM 44.6 °F - 42.8 °F 93% 30.23 in 10.0 mi Calm Calm - N/A   Clear
7:35 AM 46.4 °F 45.2 °F 44.6 °F 93% 30.24 in 10.0 mi North 3.5 mph - N/A   Clear
7:53 AM 55.9 °F - 46.0 °F 69% 30.24 in - North 3.5 mph - N/A   Unknown
7:55 AM 51.8 °F - 48.2 °F 88% 30.25 in 10.0 mi North 3.5 mph - N/A   Clear
8:15 AM 55.4 °F - 44.6 °F 67% 30.25 in 10.0 mi North 3.5 mph - N/A   Clear
8:35 AM 59.0 °F - 44.6 °F 59% 30.26 in 10.0 mi North 4.6 mph - N/A   Clear
8:53 AM 64.9 °F - 45.0 °F 48% 30.25 in - NNE 5.8 mph - N/A   Unknown
8:55 AM 62.6 °F - 44.6 °F 52% 30.26 in 10.0 mi NNE 5.8 mph - N/A   Clear
9:15 AM 64.4 °F - 44.6 °F 49% 30.26 in 10.0 mi North 5.8 mph - N/A   Clear
9:35 AM 66.2 °F - 42.8 °F 43% 30.27 in 7.0 mi NNE 8.1 mph - N/A   Clear
9:53 AM 70.0 °F - 44.1 °F 39% 30.26 in - NNE 6.9 mph - N/A   Unknown
9:55 AM 68.0 °F - 42.8 °F 40% 30.27 in 7.0 mi NNE 6.9 mph - N/A   Clear
10:15 AM 68.0 °F - 41.0 °F 37% 30.27 in 10.0 mi NNE 8.1 mph - N/A   Clear
10:35 AM 69.8 °F - 42.8 °F 38% 30.28 in 7.0 mi NE 6.9 mph - N/A   Clear
10:53 AM 73.0 °F - 42.1 °F 33% 30.27 in - Variable 4.6 mph - N/A   Unknown
10:55 AM 69.8 °F - 39.2 °F 33% 30.28 in 10.0 mi NNE 5.8 mph - N/A   Clear
11:15 AM 71.6 °F - 35.6 °F 27% 30.28 in 10.0 mi NE 3.5 mph - N/A   Clear
11:35 AM 71.6 °F - 35.6 °F 27% 30.28 in 10.0 mi NNE 6.9 mph - N/A   Clear
11:53 AM 75.9 °F - 41.0 °F 29% 30.28 in - ENE 5.8 mph - N/A   Unknown
11:55 AM 71.6 °F - 37.4 °F 29% 30.29 in 10.0 mi NE 5.8 mph - N/A   Clear
12:15 PM 71.6 °F - 33.8 °F 25% 30.28 in 10.0 mi NNE 5.8 mph - N/A   Clear
12:35 PM 73.4 °F - 35.6 °F 25% 30.28 in 10.0 mi NNE 6.9 mph - N/A   Clear
12:53 PM 77.0 °F - 39.0 °F 25% 30.26 in - NE 8.1 mph - N/A   Unknown
12:55 PM 73.4 °F - 35.6 °F 25% 30.28 in 10.0 mi NE 9.2 mph - N/A   Clear
1:15 PM 75.2 °F - 35.6 °F 24% 30.27 in 10.0 mi NNW 8.1 mph 16.1 mph N/A   Clear
1:35 PM 75.2 °F - 35.6 °F 24% 30.27 in 10.0 mi North 5.8 mph - N/A   Clear
1:53 PM 79.0 °F - 41.0 °F 26% 30.25 in - North 12.7 mph 16.1 mph N/A   Unknown
1:55 PM 77.0 °F - 37.4 °F 24% 30.26 in 7.0 mi North 11.5 mph - N/A   Clear
2:15 PM 77.0 °F - 35.6 °F 22% 30.25 in 10.0 mi North 8.1 mph - N/A   Clear
2:35 PM 77.0 °F - 35.6 °F 22% 30.24 in 10.0 mi NNW 4.6 mph - N/A   Clear
2:53 PM 80.1 °F - 42.1 °F 26% 30.22 in - NE 6.9 mph - N/A   Unknown
2:55 PM 77.0 °F - 37.4 °F 24% 30.23 in 10.0 mi NNE 5.8 mph - N/A   Clear
3:15 PM 77.0 °F - 37.4 °F 24% 30.23 in 10.0 mi North 8.1 mph - N/A   Clear
3:35 PM 77.0 °F - 35.6 °F 22% 30.22 in 10.0 mi NNW 9.2 mph - N/A   Clear
3:53 PM 80.1 °F - 43.0 °F 27% 30.20 in - Calm Calm - N/A   Unknown
3:55 PM 77.0 °F - 37.4 °F 24% 30.21 in 10.0 mi WNW 3.5 mph - N/A   Clear
4:15 PM 78.8 °F - 39.2 °F 24% 30.21 in 10.0 mi NW 5.8 mph - N/A   Clear
4:35 PM 78.8 °F - 37.4 °F 23% 30.20 in 10.0 mi North 4.6 mph - N/A   Clear
4:53 PM 80.1 °F - 43.0 °F 27% 30.18 in - NE 8.1 mph - N/A   Unknown
4:55 PM 78.8 °F - 37.4 °F 23% 30.20 in 10.0 mi NNE 8.1 mph - N/A   Clear
5:15 PM 78.8 °F - 39.2 °F 24% 30.19 in 10.0 mi NNE 3.5 mph 17.3 mph N/A   Clear
5:35 PM 77.0 °F - 37.4 °F 24% 30.18 in 10.0 mi Calm Calm - N/A   Clear
5:53 PM 81.0 °F - 43.0 °F 26% 30.17 in - North 6.9 mph - N/A   Unknown
5:55 PM 78.8 °F - 39.2 °F 24% 30.18 in 10.0 mi NNE 6.9 mph - N/A   Clear
6:15 PM 77.0 °F - 41.0 °F 28% 30.18 in 10.0 mi NNE 5.8 mph - N/A   Clear
6:35 PM 77.0 °F - 39.2 °F 26% 30.18 in 10.0 mi North 4.6 mph - N/A   Clear
6:53 PM 79.0 °F - 44.1 °F 29% 30.16 in - NNE 4.6 mph - N/A   Unknown
6:55 PM 77.0 °F - 39.2 °F 26% 30.17 in 10.0 mi NNE 5.8 mph - N/A   Clear
7:15 PM 77.0 °F - 41.0 °F 28% 30.17 in 10.0 mi North 4.6 mph - N/A   Clear
7:35 PM 75.2 °F - 41.0 °F 29% 30.18 in 10.0 mi North 4.6 mph - N/A   Clear
7:53 PM 75.9 °F - 44.1 °F 32% 30.17 in - Calm Calm - N/A   Unknown
7:55 PM 73.4 °F - 41.0 °F 31% 30.18 in 10.0 mi NNE 3.5 mph - N/A   Clear
8:15 PM 71.6 °F - 41.0 °F 33% 30.18 in 10.0 mi Calm Calm - N/A   Clear
8:35 PM 68.0 °F - 44.6 °F 43% 30.19 in 10.0 mi Calm Calm - N/A   Clear
8:53 PM 68.0 °F - 46.9 °F 47% 30.18 in - Calm Calm - N/A   Unknown
8:55 PM 64.4 °F - 46.4 °F 52% 30.19 in 10.0 mi Calm Calm - N/A   Clear
9:15 PM 62.6 °F - 48.2 °F 59% 30.19 in 10.0 mi Calm Calm - N/A   Clear
9:35 PM 62.6 °F - 46.4 °F 55% 30.20 in 10.0 mi Calm Calm - N/A   Clear
9:53 PM 60.1 °F - 50.0 °F 69% 30.19 in - Calm Calm - N/A   Unknown
9:55 PM 60.8 °F - 50.0 °F 68% 30.21 in 10.0 mi Calm Calm - N/A   Clear
10:15 PM 59.0 °F - 50.0 °F 72% 30.21 in 10.0 mi Calm Calm - N/A   Clear
10:35 PM 59.0 °F - 50.0 °F 72% 30.21 in 10.0 mi Calm Calm - N/A   Clear
10:53 PM 59.0 °F - 51.1 °F 75% 30.20 in - Calm Calm - N/A   Unknown
10:55 PM 59.0 °F - 51.8 °F 77% 30.21 in 10.0 mi Calm Calm - N/A   Clear
11:15 PM 57.2 °F - 51.8 °F 82% 30.22 in 10.0 mi Calm Calm - N/A   Clear
11:35 PM 57.2 °F - 50.0 °F 77% 30.22 in 10.0 mi Calm Calm - N/A   Clear
11:53 PM 55.9 °F - 51.1 °F 84% 30.21 in - Calm Calm - 0.01 in   Unknown
11:55 PM 55.4 °F - 51.8 °F 88% 30.22 in 10.0 mi Calm Calm - N/A   Clear